Dewpoint
60 59 58 58 58 57 57 57 57 57 57 58 58 60 60 61 60 54 27 44 66 75 73 67 68 68 67 64 64 64 54 49 51 51 52 55 55 57 60 59 60 61 61 65 68
59 59 58 58 57 57 57 57 57 57 57 57 58 60 60 60 53 39 53 71 72 73 65 66 67 67 64 64 65 61 55 49 52 53 53 54 55 57 58 59 60 63 65 68 68
58 58 58 57 57 57 57 57 57 57 57 58 58 59 60 60 46 35 70 73 74 74 67 66 65 62 62 63 63 61 57 55 54 54 54 54 55 57 58 58 59 62 65 66 67
57 57 57 57 57 57 57 56 56 56 56 57 59 59 60 56 49 64 75 74 74 70 66 66 62 60 58 58 60 56 57 56 56 54 54 54 55 55 55 57 61 64 66 65 65
57 57 57 56 56 56 56 56 56 56 56 58 59 59 54 37 25 71 76 74 71 61 62 65 60 61 60 59 58 57 58 55 55 54 55 55 55 55 57 60 63 64 65 65 65
56 56 56 56 56 56 56 56 56 56 56 58 59 59 46 28 61 72 69 68 63 63 63 65 63 63 60 58 57 58 57 53 55 54 54 55 55 55 59 62 62 63 64 64 64
56 56 55 55 56 55 56 55 55 56 57 58 59 57 38 28 65 69 66 63 61 59 58 62 63 61 61 56 59 57 51 52 55 55 54 53 52 53 60 62 62 62 63 63 63
55 55 55 55 55 55 55 55 55 57 58 58 59 55 24 50 66 66 64 65 65 66 62 63 62 58 60 59 57 54 53 47 53 54 55 53 50 55 60 60 60 61 62 62 63
55 55 55 55 55 55 54 55 56 58 58 60 48 41 31 64 61 62 63 64 64 64 63 61 61 57 57 55 52 54 49 50 51 56 53 52 52 54 56 58 59 60 61 61 62
55 55 55 55 54 54 54 55 59 57 58 56 51 38 42 56 60 61 62 63 61 61 60 59 58 53 55 53 48 50 50 51 49 54 52 52 53 52 53 54 55 56 58 59 60
56 56 55 54 54 53 52 47 27 24 45 9 21 37 38 46 62 60 61 61 59 57 55 57 54 50 49 51 51 52 50 52 54 57 54 53 52 51 52 52 52 52 53 54 54
56 56 55 54 54 53 49 29 26 31 25 27 31 32 35 31 43 58 61 57 57 55 50 50 51 53 51 51 49 51 52 52 55 57 55 54 51 53 52 52 52 52 53 53 54
56 55 54 54 54 49 40 30 33 36 22 16 27 24 20 26 16 31 59 55 53 52 51 49 49 48 50 50 48 51 51 51 51 58 58 54 51 52 53 53 53 54 55 55 55
56 54 54 53 44 44 38 43 44 29 13 13 11 16 19 19 22 27 58 49 48 48 49 47 48 47 50 50 49 47 51 53 55 52 49 54 47 50 52 53 53 54 53 56 58
55 54 53 53 43 38 35 46 31 16 10 16 10 16 16 31 29 37 50 50 48 48 48 47 46 43 50 50 50 48 51 54 54 51 50 51 49 49 52 51 51 53 53 56 58
55 53 53 51 48 47 46 37 16 8 11 14 11 10 14 16 18 16 39 47 46 48 45 46 42 36 35 51 51 54 53 52 52 50 46 47 48 44 48 50 51 52 53 53 57
53 53 52 50 31 45 37 16 2 7 11 12 10 10 15 15 16 19 17 24 29 35 36 35 25 26 29 46 51 53 48 47 44 44 44 46 47 46 51 53 51 52 52 53 56
52 53 52 51 49 43 21 13 17 2 13 15 9 9 12 12 14 15 14 14 23 29 23 25 17 19 22 35 48 51 41 42 37 40 41 49 46 46 58 61 62 58 55 53 55
52 51 48 48 51 40 19 9 -4 10 17 17 12 8 11 13 10 13 13 13 14 20 20 22 17 17 17 24 48 46 45 36 27 31 39 44 47 53 58 58 60 61 62 63 63
50 48 42 46 43 27 18 21 16 17 20 15 13 14 10 15 11 12 12 15 16 18 19 17 12 11 12 16 25 30 33 27 29 26 26 27 42 44 53 56 57 57 57 59 59
48 31 40 40 30 23 13 18 22 23 22 17 15 12 13 13 12 11 14 15 17 16 16 20 18 13 11 9 8 21 27 27 27 28 26 26 37 56 55 56 56 57 58 59 59
44 32 45 30 25 26 19 21 28 18 18 17 13 13 13 15 14 13 14 14 18 17 14 18 12 11 10 12 15 15 15 24 23 19 25 29 34 58 57 58 57 58 59 60 61
48 48 49 27 28 27 33 29 23 22 16 13 17 18 19 16 13 19 19 19 21 20 28 13 9 5 5 8 15 21 26 19 19 20 25 24 30 58 58 58 59 58 59 59 58
47 40 45 41 36 40 39 31 31 28 30 29 28 28 27 26 26 22 24 24 25 27 54 30 11 8 4 7 20 29 33 27 18 16 17 23 41 55 56 57 58 57 56 57 57
48 45 47 41 42 44 40 38 40 27 30 30 28 29 28 27 28 27 27 26 25 42 30 12 13 26 33 34 36 37 38 49 35 33 20 28 46 53 56 58 56 55 55 55 56
49 47 50 45 45 45 44 45 44 38 31 30 28 29 29 26 26 26 26 25 24 24 37 27 23 33 32 34 35 37 37 41 46 52 51 50 50 55 57 55 54 54 55 55 55
50 50 50 44 46 44 46 47 46 45 35 34 32 31 30 30 29 29 27 30 32 34 26 28 28 24 30 32 31 28 36 42 47 51 52 46 51 56 55 55 55 54 55 55 55
Lifted_Index
12 12 13 13 14 14 14 14 13 13 13 13 12 11 11 10 6 3 1 -0 -1 -2 -3 -3 -3 -3 -2 -2 -2 -2 -1 -0 0 -0 -0 -1 -1 -1 -1 -1 -2 -2 -2 -3 -3
13 13 13 13 14 14 14 14 14 13 13 13 12 11 11 9 5 2 1 0 -1 -2 -3 -3 -3 -2 -2 -2 -2 -1 -1 0 0 0 -0 -1 -1 -1 -1 -1 -2 -2 -3 -3 -3
13 13 14 14 14 14 14 14 14 14 13 13 12 11 10 7 3 1 1 -0 -2 -3 -3 -3 -2 -2 -1 -1 -1 -1 -0 0 0 0 -0 -1 -1 -1 -1 -1 -2 -2 -3 -3 -3
14 14 14 14 14 14 14 14 14 14 14 13 12 11 9 5 1 -0 -0 -1 -2 -3 -3 -3 -2 -1 -1 -1 -1 -0 -0 -0 -0 -0 -0 -1 -1 -1 -1 -1 -2 -2 -3 -3 -2
14 14 14 14 14 14 14 14 14 14 14 13 12 11 7 3 0 -1 -1 -2 -2 -2 -3 -3 -2 -2 -2 -1 -1 -0 -0 -0 -0 -0 -0 -1 -1 -1 -1 -1 -2 -2 -2 -2 -2
14 14 15 14 14 14 14 14 14 14 14 13 12 10 6 2 0 -1 -2 -2 -2 -2 -2 -3 -2 -2 -2 -2 -1 -1 -1 -1 -0 -0 -0 -1 -1 -1 -2 -2 -2 -2 -2 -2 -2
14 15 15 15 14 14 14 15 14 14 14 13 12 9 5 2 0 -1 -1 -1 -2 -2 -3 -3 -2 -2 -2 -1 -1 -0 -0 -0 -0 -0 -0 -1 -1 -1 -2 -2 -2 -2 -2 -2 -1
14 15 15 15 15 15 15 15 14 14 13 13 11 8 4 2 0 -1 -1 -2 -2 -3 -3 -2 -2 -2 -2 -1 -1 -0 0 0 -0 -0 -0 -0 -1 -1 -1 -1 -2 -2 -2 -2 -1
14 15 15 15 15 15 15 14 14 13 13 12 10 7 4 2 0 -1 -1 -2 -2 -3 -3 -2 -2 -2 -2 -1 -1 -0 0 0 -0 -0 -0 0 0 0 -0 -1 -1 -1 -1 -1 -1
14 15 15 15 15 15 14 13 13 12 11 10 8 6 3 1 -0 -1 -2 -2 -2 -2 -2 -2 -2 -2 -1 -1 -1 -1 -1 -1 -1 -1 -1 -0 0 0 -0 -0 -0 -0 -0 -1 -0
14 15 15 15 15 14 13 12 12 11 10 9 7 6 5 3 1 -1 -1 -2 -2 -2 -2 -2 -2 -1 -1 -1 -1 -1 -1 -1 -2 -2 -1 -1 -1 -0 -0 0 0 1 0 0 0
14 14 15 15 15 14 12 12 11 11 9 8 7 6 6 4 2 -0 -1 -1 -2 -2 -2 -2 -1 -1 -0 -0 -1 -1 -1 -1 -2 -2 -2 -2 -1 -1 -1 -0 0 1 1 1 1
14 14 14 14 14 13 12 12 12 11 9 8 7 7 6 5 3 1 -0 -1 -2 -2 -3 -2 -2 -1 -1 -0 -1 -1 -1 -1 -1 -2 -2 -2 -2 -1 -1 -1 -1 0 1 1 1
14 14 14 14 13 12 12 11 12 10 8 6 7 7 7 6 3 2 0 -1 -1 -2 -2 -2 -2 -2 -1 -1 -1 -1 -1 -1 -1 -1 -1 -2 -2 -1 -1 -1 -1 -1 -0 0 1
14 14 14 13 12 12 11 11 11 9 6 6 7 7 7 6 4 3 1 -0 -1 -1 -1 -2 -2 -2 -2 -2 -1 -1 -1 -2 -1 -1 -1 -1 -1 -1 -0 -0 -1 -1 -0 -0 -0
14 14 14 13 12 11 11 11 9 6 5 6 7 7 7 6 6 5 3 1 0 0 -0 -1 -1 -1 -1 -2 -2 -2 -2 -2 -2 -1 -1 -1 -1 -0 0 0 -0 -1 -1 -1 -1
13 13 13 13 12 11 10 9 7 5 5 6 6 7 7 6 6 6 4 2 2 1 1 0 0 1 0 -1 -2 -2 -2 -2 -2 -1 -1 -1 -0 0 0 -0 -1 -1 -1 -1 -1
12 12 12 12 11 10 10 8 6 5 6 6 6 6 6 6 6 6 5 4 4 3 2 2 1 2 1 -0 -1 -2 -2 -1 -1 -0 0 0 1 1 0 -1 -1 -1 -2 -2 -1
11 10 10 10 10 10 9 7 6 6 6 6 5 5 5 5 5 5 5 5 5 4 4 3 3 2 2 1 -0 -1 -1 -0 0 1 1 1 1 1 0 -1 -1 -1 -2 -2 -2
10 10 10 10 10 9 8 6 6 7 7 6 5 5 5 5 5 4 4 4 4 4 4 4 3 3 2 2 1 1 1 1 1 1 1 1 1 0 -1 -1 -1 -1 -2 -2 -2
9 10 9 9 9 8 7 6 7 7 7 6 5 5 4 4 4 4 4 4 4 4 4 4 3 2 2 2 2 2 1 1 1 0 0 1 1 -1 -2 -2 -2 -2 -2 -2 -2
9 9 9 9 9 8 6 6 7 7 7 6 6 5 5 4 4 4 4 4 4 4 3 3 3 2 1 2 2 1 1 1 1 0 0 1 0 -1 -3 -3 -3 -3 -3 -3 -3
8 8 9 8 7 6 6 6 6 6 6 6 6 5 5 4 4 3 4 4 4 4 3 3 2 2 1 1 1 1 1 1 0 0 0 0 -0 -2 -3 -3 -4 -3 -3 -3 -3
7 8 8 7 6 5 5 5 5 5 5 5 5 5 5 4 3 3 3 4 4 4 4 3 2 2 1 1 1 1 1 1 0 0 -0 -0 -1 -2 -3 -4 -4 -4 -3 -3 -3
7 7 7 6 5 4 4 4 4 4 4 4 4 4 4 4 3 3 3 4 4 4 4 4 3 2 2 1 1 1 0 -0 -0 -1 -1 -1 -1 -2 -3 -4 -4 -3 -2 -2 -2
7 7 7 6 5 4 3 3 3 3 3 3 3 3 3 3 3 3 3 3 4 4 5 4 3 3 2 2 1 1 -0 -1 -2 -2 -2 -2 -3 -3 -4 -4 -4 -2 -2 -1 -2
8 7 7 6 4 3 3 2 2 3 3 3 3 3 3 3 3 3 3 3 3 4 5 4 4 3 2 2 2 1 -0 -2 -3 -4 -4 -3 -3 -4 -4 -4 -3 -2 -2 -2 -2